Regional Weather Roundup
Issued by NWS

Home | Current Version | Previous Version | Text Only | Print | Product List | Glossary On
Versions: 1 2 3 4 5 6 7 8 9 10 11 12 13 14 15 16 17 18 19 20 21 22 23 24 25 26 27 28 29 30 31 32 33 34 35 36 37 38 39 40 41 42 43 44 45 46 47 48 49 50
000
ASCA42 TJSJ 151011
RWRPR
PUERTO RICO/U.S. VIRGIN ISLANDS HOURLY WEATHER ROUNDUP
NATIONAL WEATHER SERVICE SAN JUAN PR
600 AM AST MON SEP 15 2014

PRZ001-004-151100-
PUERTO RICO

CITY           SKY/WX    TMP DP  RH WIND       PRES   REMARKS
SAN JUAN LMM   PTCLDY    79  77  94 CALM      30.00R
PONCE          PTCLDY    72  70  94 CALM      29.95S
CEIBA          CLEAR     77  73  88 N3        30.01R
$$

PRZ006-007-151100-
U.S. VIRGIN ISLANDS

CITY           SKY/WX    TMP DP  RH WIND       PRES   REMARKS
CHRISTIANSTED  CLEAR     75  73  94 N5        29.99
$$

HOURLY WEATHER ROUNDUP FOR THE NEWS MEDIA

CITY           SKY/WX    TMP DP  RH WIND       PRES   REMARKS
MIAMI          PTCLDY    81  74  79 CALM      30.12R
ORLANDO        CLEAR     76  73  91 SW3       30.15R
NEW YORK       PTCLDY    56  48  74 N8        30.23R
NEWARK         PTCLDY    53  45  74 N10       30.23R
CHICAGO        CLOUDY    53  46  77 CALM      30.15S
HARTFORD       PTCLDY    46  44  93 CALM      30.21R
BOSTON         PTCLDY    48  41  76 N8        30.23S
DALLAS         CLOUDY    72  65  78 SE6       30.13R
PHILADELPHIA   CLEAR     53  46  77 N6        30.23R



USA.gov is the U.S. government's official web portal to all federal, state and local government web resources and services.